Wind_Speed
10 10 9 10 10 11 12 12 12 13 14 16 17 18 19 20 21 22 23 24 25 26 27 28 29 30 32 33 35 36 37 37 38 39 38 37 35 32 29 26 23 19 16 14 13 14 15 16 17 17 18 18 19 20 21 22 24 25 26 26 27 27 25 25 25 25 26 28 28 28 27 29 32 32 34 37 38 37 32 32 35 36 34 33 34 35 35 35
11 10 10 10 11 12 13 13 13 14 15 16 18 18 19 20 22 23 24 25 25 26 27 28 29 30 32 33 34 36 37 37 37 38 38 37 35 33 30 28 25 22 19 17 16 15 15 16 17 18 18 19 19 20 21 23 24 25 26 26 26 27 26 26 26 27 27 28 28 29 29 30 32 33 34 38 40 37 33 34 36 36 34 34 35 35 36 36
11 11 11 11 12 12 13 14 14 15 15 17 18 19 20 21 22 23 24 25 25 26 27 28 29 30 31 33 34 36 37 37 37 37 37 36 35 34 32 30 28 26 24 22 20 18 17 17 17 18 18 19 19 20 21 22 23 24 25 26 26 27 26 27 28 28 28 28 29 30 31 31 32 34 34 38 41 37 35 36 37 36 35 35 35 36 37 38
12 12 12 12 12 13 13 14 15 15 16 17 18 20 21 21 22 23 24 25 26 26 27 27 28 30 31 33 34 36 36 37 37 37 36 36 35 34 32 32 31 29 27 26 24 23 21 20 19 19 19 19 18 19 20 21 23 23 24 26 27 27 27 28 29 29 29 29 29 31 32 33 34 35 35 39 42 37 36 38 37 37 36 36 36 36 37 37
12 12 12 12 13 13 14 14 15 15 16 17 18 20 21 22 23 23 24 26 26 26 27 27 28 29 30 32 34 35 35 36 36 36 36 36 35 34 33 32 32 31 30 28 27 25 24 23 22 21 20 20 19 19 20 21 23 23 23 25 27 28 28 29 30 30 30 30 30 31 32 34 36 37 37 41 42 38 38 39 38 38 37 37 37 36 37 36
13 13 13 13 14 14 14 15 15 15 16 17 18 19 21 22 23 24 25 26 27 27 27 27 28 29 30 31 33 34 35 35 35 36 36 36 35 35 34 32 32 32 32 31 29 28 26 25 24 23 22 21 21 21 21 21 23 24 22 25 28 29 30 30 31 31 31 31 32 33 34 36 39 40 41 43 42 40 40 40 39 39 39 40 39 39 38 37
14 14 14 14 14 15 15 16 16 15 16 17 18 19 20 22 23 24 25 26 27 27 27 27 28 29 30 31 32 33 34 34 35 36 36 36 36 35 34 33 33 32 32 32 32 30 28 27 26 25 24 23 23 23 22 21 23 25 25 25 27 29 31 31 32 33 33 33 34 35 36 37 40 42 44 45 42 40 41 41 40 40 41 42 41 41 40 40
16 15 15 14 15 15 16 16 16 16 16 17 18 19 20 22 23 24 25 25 26 27 27 28 28 29 30 31 32 33 33 34 34 35 35 35 35 34 34 34 33 32 32 32 33 32 30 29 28 27 26 25 25 24 24 23 24 26 27 27 27 29 31 32 33 34 34 35 36 37 38 39 41 43 46 45 42 41 42 42 41 41 42 42 42 42 41 41
17 16 16 15 15 15 16 16 17 17 17 18 19 19 20 22 23 24 25 25 26 27 27 28 28 29 30 30 32 32 32 32 33 33 33 33 33 34 34 34 33 33 32 32 32 32 31 30 29 28 27 27 27 26 26 26 26 27 30 30 30 31 32 33 34 35 36 36 36 37 39 40 41 44 46 45 42 42 42 42 42 43 43 42 42 41 42 41
18 18 17 16 16 16 16 17 17 18 18 18 19 20 21 22 23 24 25 26 26 26 27 27 28 29 29 30 31 31 31 31 31 31 31 32 32 33 34 34 33 33 33 32 32 32 32 32 30 29 28 27 27 27 28 28 28 28 31 32 33 33 34 34 34 34 36 36 36 37 39 40 41 44 46 45 44 42 41 42 43 43 43 42 42 42 43 43
19 19 18 17 17 17 17 17 18 18 19 19 19 20 21 22 23 24 25 26 27 27 27 27 27 28 29 29 30 30 30 30 30 30 30 31 32 33 34 34 33 33 33 33 33 32 31 32 32 31 29 27 27 26 26 27 28 28 30 32 32 33 34 33 33 33 34 36 36 37 39 40 42 44 47 46 44 40 39 41 41 43 43 43 44 44 44 44
20 20 19 19 18 18 18 18 18 19 19 20 20 21 21 22 23 24 25 26 27 27 28 28 27 28 28 29 29 29 29 29 29 29 29 31 32 33 34 34 34 34 34 33 32 31 31 31 31 31 30 29 28 27 26 26 27 27 29 31 31 32 32 32 31 32 34 35 37 38 39 41 42 45 47 47 43 39 40 41 41 43 43 43 44 44 44 44
21 21 21 20 20 20 20 20 20 20 20 21 21 21 22 23 24 25 26 26 27 27 28 28 28 28 28 29 29 29 29 29 29 29 29 31 32 32 34 34 34 35 34 33 32 31 30 30 30 30 30 30 29 29 29 28 28 28 29 30 31 33 34 33 32 33 33 35 38 40 39 40 42 46 48 47 44 42 43 43 44 44 44 44 45 44 44 44
23 22 22 22 21 21 21 21 21 21 21 22 22 22 23 24 24 25 26 27 27 27 28 29 29 28 29 29 28 29 29 29 29 29 29 30 31 33 34 34 34 35 34 34 33 32 30 30 30 29 29 29 29 29 30 30 29 29 30 30 30 32 34 34 34 34 35 35 37 40 40 39 42 47 50 48 45 44 45 45 46 46 45 46 45 45 45 45
24 24 23 23 23 23 23 23 23 22 22 22 23 24 24 25 26 26 27 27 27 27 28 28 29 29 29 29 28 29 29 29 29 29 29 30 32 33 34 35 34 34 34 34 34 33 32 31 30 30 29 29 29 29 28 29 29 28 28 28 28 30 32 34 34 34 35 36 38 40 40 40 43 48 51 48 45 44 44 45 46 46 46 47 46 46 46 47
26 25 25 25 25 24 24 24 24 24 23 23 24 25 25 25 26 27 28 28 27 27 28 29 29 29 29 29 29 29 29 29 30 29 29 30 32 33 34 35 35 34 35 35 34 34 34 33 32 32 31 29 30 30 29 28 30 30 28 28 28 29 31 33 35 34 33 36 39 41 41 40 42 47 49 47 44 42 44 46 46 46 47 48 47 47 48 50
28 27 27 27 26 26 26 26 26 25 25 25 25 26 26 26 27 28 29 29 28 28 29 29 29 30 29 29 30 30 29 29 30 29 30 31 32 34 34 35 35 35 35 35 35 35 35 34 34 34 33 32 31 31 31 29 30 31 31 31 31 32 33 34 37 36 35 36 39 40 41 40 42 46 48 47 44 43 46 47 47 48 49 49 48 49 51 53
29 29 28 28 28 27 27 27 27 26 26 26 26 27 27 27 28 28 28 30 30 29 29 29 31 31 30 30 31 30 30 30 30 30 31 32 33 34 35 35 35 35 36 36 37 37 36 36 36 36 36 35 33 33 33 31 30 30 31 32 32 33 34 36 39 39 37 38 40 41 43 42 43 48 50 49 47 47 49 50 50 51 51 51 51 53 55 57
31 30 30 30 29 29 29 29 29 28 28 28 28 28 28 28 29 29 29 30 31 31 31 30 32 32 32 32 31 31 31 30 30 31 32 33 34 34 34 35 36 36 36 36 37 38 38 39 40 40 39 39 37 35 35 34 33 32 33 33 34 35 36 37 40 40 39 41 43 44 45 44 45 49 51 50 50 51 51 52 53 53 54 53 54 56 58 60
32 32 32 31 31 30 30 30 30 30 29 29 29 30 29 29 30 30 29 30 32 34 34 33 33 34 33 32 33 33 32 31 31 32 33 34 35 34 34 35 36 36 36 37 37 38 39 40 41 41 41 41 39 38 36 36 36 36 35 36 36 38 39 41 43 43 43 45 46 46 46 45 46 50 51 50 51 51 51 53 53 54 56 55 57 59 61 62
34 34 34 33 32 32 32 32 32 32 31 30 30 30 31 31 31 31 29 28 30 32 34 34 34 35 34 34 34 34 33 33 32 33 35 34 35 35 35 35 36 37 37 38 39 39 40 41 42 42 43 42 42 40 38 38 38 38 38 38 39 41 42 43 45 46 46 47 48 49 48 46 47 51 50 50 50 50 51 52 52 54 56 57 60 62 63 65
36 36 35 35 34 34 34 33 33 33 33 32 32 32 32 33 33 34 33 29 27 30 32 34 34 35 35 35 35 35 34 33 33 35 36 35 35 36 36 37 37 38 38 38 39 39 41 43 43 43 44 44 43 41 40 39 38 39 39 39 41 43 43 44 47 48 48 49 50 51 50 49 50 51 50 50 50 50 51 52 53 55 56 59 62 64 65 68
38 38 37 36 36 36 36 35 35 35 35 34 33 33 34 35 35 36 36 34 30 29 31 34 35 35 36 36 35 35 35 34 35 36 36 36 36 37 38 38 38 39 40 40 41 41 42 44 44 44 45 44 43 42 42 40 40 40 41 41 43 45 46 47 48 50 50 51 52 53 53 52 52 52 52 52 51 52 53 54 57 57 57 61 64 65 66 68
40 40 39 38 38 38 37 37 37 36 36 36 35 35 35 36 37 37 38 38 35 31 32 35 36 36 36 36 35 35 35 36 37 36 36 37 38 38 39 39 39 39 41 42 43 43 44 45 45 45 45 44 43 43 42 43 42 42 42 43 45 46 47 48 49 50 51 52 53 55 55 54 55 55 55 54 54 56 56 58 60 60 60 63 64 65 66 67
41 41 41 40 40 39 39 39 38 38 37 37 36 36 36 37 38 39 40 41 39 34 34 37 37 36 36 36 36 35 36 37 37 36 37 38 38 39 40 41 41 40 42 43 44 44 45 46 47 47 46 45 44 43 43 44 44 43 43 43 45 46 47 48 49 51 52 53 55 56 56 57 58 57 58 57 57 58 59 61 62 61 63 64 64 64 65 68
43 43 43 42 42 41 41 40 40 40 39 38 38 37 38 38 39 41 42 44 42 37 36 38 38 37 37 37 36 37 38 37 37 37 38 39 39 40 41 42 43 42 43 45 45 45 46 46 47 48 48 48 47 45 45 45 45 44 43 44 46 47 48 49 50 52 53 54 56 56 56 60 61 59 59 59 59 59 60 63 63 63 64 64 63 64 67 70
44 44 44 44 44 43 43 42 41 41 40 40 40 39 39 39 41 42 43 46 44 39 39 39 38 39 39 37 37 38 38 38 39 39 39 40 40 41 41 42 44 45 45 48 48 47 47 47 48 50 50 50 49 48 48 48 48 48 46 47 48 49 50 51 52 54 55 56 58 55 55 61 63 61 61 61 60 60 61 63 64 65 64 63 64 66 69 71
46 46 46 46 46 45 45 44 43 42 42 42 41 41 41 41 42 43 44 48 46 42 42 41 40 41 40 38 38 37 38 40 41 40 40 40 41 42 42 42 44 45 47 50 51 50 50 49 50 51 52 52 52 51 50 50 50 50 50 50 51 52 53 54 55 56 57 59 59 56 57 62 64 63 61 61 61 60 62 63 65 65 64 63 65 68 70 72
48 48 48 48 48 47 47 46 45 44 44 44 43 43 42 43 43 43 45 47 46 45 45 43 43 42 41 39 39 38 39 41 42 41 41 42 42 43 44 44 45 46 48 50 52 52 52 51 52 53 54 55 54 53 52 51 51 51 51 52 53 55 56 56 58 58 59 62 60 58 59 61 64 63 61 60 60 60 61 64 65 64 64 65 68 70 71 72
50 50 50 50 49 49 48 47 46 46 46 46 46 45 45 45 45 44 47 46 44 47 48 45 44 43 42 41 41 40 41 42 42 42 43 43 44 44 45 46 46 48 50 51 52 53 52 52 53 53 55 56 56 55 54 52 52 52 52 54 55 57 58 59 60 60 62 63 62 61 62 62 65 63 61 62 61 60 61 62 64 63 64 67 70 71 71 72
52 52 52 51 51 50 50 49 48 48 48 48 48 48 47 48 47 47 47 46 45 47 47 45 45 45 44 43 43 42 42 44 44 43 43 45 45 45 46 46 47 50 52 52 54 54 53 53 53 54 55 56 56 55 54 54 53 53 53 55 56 58 59 61 62 62 64 65 64 64 64 64 66 64 63 64 61 60 61 61 62 63 65 69 71 71 71 72
54 54 53 53 53 52 51 51 50 50 50 50 51 51 50 51 52 50 45 44 46 48 47 46 46 47 46 45 44 43 44 46 46 44 44 46 47 47 47 47 48 52 55 56 57 58 57 56 56 56 56 56 56 56 56 55 54 54 55 56 58 59 60 62 63 64 65 65 65 65 64 65 65 64 66 65 60 58 60 61 62 64 67 70 71 71 71 73
56 55 55 55 54 54 53 53 52 52 52 53 54 54 54 56 56 51 45 44 45 47 47 48 48 48 48 47 45 44 45 47 47 46 46 47 48 48 49 48 49 52 56 58 60 61 61 60 59 58 59 58 58 58 58 58 57 57 58 59 60 60 61 63 63 64 64 64 64 64 64 66 66 66 69 66 59 58 59 60 62 66 70 71 71 72 72 73
57 57 57 56 56 56 55 55 55 54 54 55 56 57 59 59 57 51 47 46 46 46 46 47 49 50 50 48 47 46 47 48 48 47 48 49 50 50 49 49 49 52 55 57 60 62 64 63 62 61 62 61 60 60 60 60 60 61 62 62 61 60 61 63 63 64 64 63 64 63 64 67 67 69 70 65 59 59 60 61 65 70 72 72 72 73 72 72
58 58 58 58 58 58 57 57 57 57 58 58 60 62 63 60 55 51 49 48 48 47 46 48 50 52 51 49 48 47 48 50 50 49 51 52 52 52 51 50 51 52 55 57 60 64 66 65 64 64 64 63 63 62 63 64 63 64 64 64 62 61 62 62 64 66 65 66 66 64 66 69 69 70 70 64 60 60 61 64 69 72 72 72 73 72 71 71
60 60 60 60 60 60 60 60 59 60 61 61 64 66 64 59 54 51 50 50 49 48 48 50 51 52 51 51 50 49 49 50 51 52 53 54 55 54 52 52 53 54 55 57 61 65 67 66 66 67 66 65 65 65 65 66 66 65 66 64 62 62 62 63 66 67 67 68 69 68 69 71 71 72 68 63 60 60 63 67 71 72 72 72 72 71 71 71
63 63 62 62 62 62 62 62 62 63 63 65 68 68 64 59 54 51 52 51 50 49 50 52 53 52 53 53 52 52 52 52 52 53 54 55 56 55 54 54 54 55 57 59 63 66 68 68 67 68 68 67 67 67 67 67 67 66 65 62 62 62 62 64 67 68 67 69 72 72 72 74 74 71 66 60 59 61 65 69 71 70 71 71 70 70 71 71
66 65 65 64 63 64 64 64 64 65 66 68 70 68 64 60 54 52 53 53 51 51 51 53 54 54 55 54 53 53 54 54 55 56 57 58 58 56 55 55 56 57 59 62 65 67 68 69 68 67 68 68 68 68 68 68 68 66 63 60 61 62 63 64 66 68 68 69 73 74 74 76 74 69 64 58 58 63 67 69 70 70 69 68 68 69 71 71
68 67 67 65 64 64 64 65 66 67 70 71 70 68 64 60 55 54 56 55 52 52 53 53 54 55 56 55 54 55 56 57 57 57 59 60 60 58 57 56 57 59 61 64 67 67 69 71 69 67 68 69 68 68 69 68 68 65 61 59 60 61 62 64 67 69 67 69 74 75 77 77 72 66 62 57 58 63 67 69 71 69 68 67 67 69 70 70
69 69 69 66 64 64 65 67 69 71 72 72 70 67 64 61 58 57 57 56 55 54 54 55 56 56 55 55 56 57 59 59 59 59 61 61 61 60 59 58 59 61 64 66 67 68 69 70 70 69 69 70 69 69 69 68 66 64 60 59 61 61 63 66 69 69 67 69 73 75 79 79 71 65 60 56 59 63 67 70 71 69 67 66 67 69 69 69
71 72 71 68 66 66 67 69 71 72 73 72 70 67 64 63 61 60 59 58 57 56 56 57 57 57 56 56 57 59 61 61 60 61 62 62 62 61 61 61 62 64 66 67 68 68 69 69 70 69 70 71 71 70 68 66 64 62 60 61 62 63 65 68 69 67 67 70 72 74 80 79 70 63 58 56 60 64 67 71 70 68 67 66 67 69 68 68
74 74 72 70 69 69 70 72 73 74 75 73 70 66 65 64 63 63 63 61 60 58 58 57 57 57 57 58 59 61 63 62 60 62 64 63 63 62 62 62 63 65 67 68 67 67 68 69 69 69 70 71 70 68 66 64 64 63 63 64 65 66 67 67 69 68 69 73 74 73 78 77 67 59 57 58 61 65 69 70 68 67 65 65 68 68 67 67
76 75 74 73 74 74 74 75 75 76 75 72 69 67 66 65 65 65 66 65 63 61 60 59 58 58 59 60 61 63 64 62 61 63 65 65 65 64 63 63 64 65 67 67 66 66 68 68 68 70 71 70 69 67 65 64 64 65 66 67 68 69 69 68 70 71 73 76 74 73 77 75 65 58 57 60 63 66 69 69 68 66 64 65 67 67 66 65
77 77 76 76 77 78 78 77 76 75 73 72 71 69 66 66 67 68 67 67 66 64 62 60 60 61 61 62 63 63 63 63 63 64 67 67 66 64 64 64 64 66 67 67 67 67 67 67 69 70 70 70 69 66 65 65 65 66 67 67 69 70 70 70 71 74 78 75 70 74 76 70 62 61 60 61 64 66 68 70 68 65 64 66 66 65 64 64
79 79 78 78 80 80 80 78 76 75 74 73 72 69 67 69 69 69 68 69 69 67 64 62 62 63 64 65 65 63 62 64 66 68 69 68 66 65 64 64 66 68 68 67 67 67 66 68 69 68 68 69 67 65 66 67 67 68 68 68 70 70 69 69 70 75 78 71 68 75 73 63 60 63 63 63 65 67 68 69 67 64 64 66 65 64 63 64
81 81 80 80 82 82 81 79 78 77 75 73 72 70 69 71 70 69 71 71 70 68 65 64 64 65 66 66 65 63 64 67 69 71 70 68 66 65 65 66 69 70 69 68 69 68 67 70 70 68 67 67 66 66 68 68 69 71 70 70 72 71 69 68 71 75 73 67 70 73 68 63 61 60 63 66 67 68 69 68 65 64 65 65 64 64 64 66
82 83 82 82 83 83 82 81 80 78 74 74 74 72 72 72 71 73 74 71 69 68 67 66 66 67 67 67 67 66 67 70 72 72 70 66 65 66 66 69 70 69 68 69 69 67 68 71 71 69 68 67 67 69 70 70 71 71 71 73 71 69 68 70 73 72 66 66 73 67 61 65 63 58 63 67 68 69 68 66 64 64 64 64 63 64 65 67
83 84 83 83 84 84 83 81 79 78 76 76 76 73 73 75 75 76 75 72 70 69 69 68 68 68 68 68 68 69 70 72 73 71 68 66 66 68 69 71 70 68 68 69 68 67 70 72 71 70 69 68 70 72 71 70 71 71 73 73 70 68 70 70 69 65 61 68 71 63 60 65 63 61 64 68 68 68 66 64 64 62 62 62 62 64 66 67
84 84 84 84 84 83 82 82 81 81 79 78 78 77 77 77 77 76 75 75 72 70 71 71 68 68 69 69 71 72 71 72 72 70 69 70 70 70 72 71 69 68 68 68 68 68 71 73 72 71 70 70 71 72 71 71 72 73 73 73 71 69 67 65 64 63 63 67 66 62 63 62 60 63 67 66 67 67 64 63 63 61 61 62 62 64 66 67
85 85 83 85 85 83 83 83 82 82 81 80 82 82 80 79 77 75 75 75 73 72 73 72 68 68 71 71 73 74 71 71 71 70 71 73 72 73 74 70 67 68 69 69 70 70 71 73 73 72 72 72 72 72 72 71 72 74 76 74 69 65 63 64 65 63 63 64 62 62 64 61 60 65 67 65 64 65 64 63 61 60 61 61 63 65 66 67
85 85 85 86 87 84 85 85 84 84 84 84 84 83 81 79 76 74 75 75 74 74 74 72 70 71 74 74 75 75 72 71 73 72 72 75 74 74 73 69 67 70 71 72 72 71 71 73 72 71 73 72 71 71 71 69 71 77 76 70 64 63 64 64 61 59 60 62 61 63 63 61 62 65 65 63 63 64 64 62 60 59 59 61 64 65 66 67
88 87 87 88 88 86 85 86 87 87 86 85 83 82 81 79 76 75 78 77 74 72 71 72 73 76 78 78 78 76 74 74 75 75 75 77 76 73 70 69 70 72 73 72 71 69 70 71 70 69 70 69 69 69 68 68 74 76 71 64 62 63 61 57 55 56 59 61 62 62 61 62 64 63 62 63 63 63 62 61 60 59 58 62 65 66 67 67
Wind_Direction
240 255 269 282 293 302 309 314 319 323 326 329 334 341 346 348 350 351 351 352 353 355 357 358 358 357 358 360 1 2 3 5 7 7 7 6 3 2 3 3 1 356 348 339 326 314 305 298 294 291 291 292 294 297 299 300 300 299 300 301 302 305 308 311 314 316 318 323 325 325 324 321 322 322 320 319 318 321 327 324 322 327 329 329 327 325 325 324
243 256 269 281 292 299 306 312 316 319 322 325 329 334 341 344 346 347 348 349 351 354 356 356 355 354 355 357 358 359 1 4 6 6 6 5 3 1 359 359 358 354 349 343 338 331 321 311 304 299 295 295 296 298 299 300 300 300 300 301 303 305 308 310 312 314 318 322 323 322 321 320 319 319 318 316 316 321 324 320 321 325 326 326 324 323 322 322
245 257 269 280 290 298 304 309 313 316 319 322 325 329 335 340 342 344 344 346 349 352 354 354 353 352 353 354 355 357 358 1 4 6 5 5 4 1 358 355 354 353 349 345 339 334 329 323 318 312 306 302 300 300 300 300 300 301 302 303 304 304 307 309 311 315 318 320 321 319 319 318 317 317 316 314 316 320 320 319 321 322 324 324 321 321 320 320
247 258 268 278 287 295 301 306 310 314 317 320 323 326 331 336 339 341 342 343 347 350 352 353 351 351 352 352 353 354 356 358 1 3 4 4 4 3 359 355 352 351 349 346 342 337 332 328 324 319 315 310 308 305 304 303 301 302 303 303 303 305 308 310 312 315 317 319 318 317 318 316 315 316 314 312 315 317 317 319 319 320 323 321 319 319 318 319
246 256 266 276 285 292 298 303 307 311 315 318 321 324 328 333 336 338 340 342 344 348 350 351 350 349 350 351 351 352 354 357 359 1 2 3 4 4 3 358 353 350 348 346 343 339 335 331 327 322 319 316 313 310 307 305 303 303 304 303 304 306 309 310 312 314 317 317 317 316 317 315 314 314 313 311 313 314 316 317 317 319 320 317 317 317 317 317
244 253 263 273 282 290 297 301 305 309 313 316 320 323 327 330 333 336 338 340 342 344 348 348 348 348 349 350 351 352 354 357 359 1 1 1 3 4 3 1 356 352 348 346 343 340 337 334 330 325 322 318 315 313 309 308 305 305 305 304 305 308 310 311 313 315 316 316 316 315 315 314 313 313 311 310 311 312 314 314 315 317 316 314 315 316 315 315
243 251 260 270 280 289 295 300 303 307 311 314 318 322 325 328 331 333 336 339 340 342 344 345 346 347 349 351 351 352 354 356 359 0 0 360 1 1 1 360 357 354 349 345 343 340 338 334 331 327 323 321 318 315 312 311 308 307 308 307 308 310 311 313 314 314 315 314 314 313 313 312 311 310 309 309 310 311 311 313 314 314 313 313 314 314 314 313
243 250 258 267 277 287 294 298 302 306 310 312 315 320 323 326 329 331 334 336 338 339 341 343 345 346 348 350 350 351 353 356 359 359 359 358 359 358 357 356 354 353 349 346 342 340 338 334 331 328 324 322 319 316 315 314 312 310 311 310 310 310 310 312 312 313 313 312 312 311 311 310 309 309 308 309 309 308 310 312 312 311 311 312 313 312 311 311
245 251 257 265 275 284 291 296 300 304 308 311 314 317 321 324 326 329 331 333 335 336 338 340 342 344 346 349 349 349 351 355 357 357 356 356 355 355 353 352 351 350 348 346 343 340 338 336 332 328 325 323 320 318 316 315 313 312 311 311 311 310 309 310 311 312 311 310 311 311 310 309 309 308 308 310 308 307 311 311 310 310 310 310 310 309 309 309
246 252 257 264 272 280 287 293 297 301 305 309 312 315 319 322 324 326 329 330 332 333 335 337 339 341 344 347 347 346 349 353 354 354 353 352 352 351 350 348 348 347 346 345 344 341 338 335 334 331 328 326 323 320 317 315 314 312 311 310 311 311 310 310 311 311 310 311 312 311 309 309 309 307 308 310 309 309 311 309 309 309 308 309 308 307 307 307
248 254 258 263 271 278 285 290 294 298 302 305 309 313 316 319 321 324 325 327 329 330 332 333 336 338 341 344 344 343 347 349 351 351 350 349 349 348 346 345 344 344 344 343 343 342 339 335 333 332 331 328 324 321 318 316 315 314 312 312 313 311 311 311 312 312 312 313 312 310 308 308 308 306 308 311 312 311 308 307 308 307 307 307 306 306 305 306
249 255 260 264 270 277 283 288 292 295 299 303 307 310 313 316 318 320 322 324 326 327 329 330 333 336 338 341 340 340 344 346 347 347 346 346 345 344 342 341 341 341 341 340 340 340 340 337 334 331 330 329 326 321 317 314 313 312 311 312 312 310 310 311 312 312 311 312 310 308 306 306 308 308 310 314 315 313 308 308 307 305 306 306 305 305 305 306
250 256 260 264 269 276 281 286 290 294 297 301 304 307 309 312 314 316 318 320 323 325 326 327 330 333 335 338 337 338 341 343 343 343 342 342 341 340 339 338 337 338 339 339 337 337 338 338 336 332 328 327 326 322 319 317 314 312 311 311 311 311 311 310 310 309 309 309 307 306 306 305 308 310 312 316 317 314 311 310 308 307 306 305 304 305 305 307
251 256 261 265 269 274 280 284 289 292 296 298 301 304 306 308 311 313 314 317 320 321 323 324 327 330 332 334 334 335 338 339 339 339 339 338 337 336 335 334 335 336 338 338 337 336 336 335 336 334 331 328 324 320 318 317 316 315 314 313 313 313 312 311 311 309 310 310 306 306 308 307 309 311 313 315 316 313 311 309 308 307 306 304 304 304 305 307
252 257 262 266 270 274 279 283 287 290 293 296 298 301 304 305 307 309 311 314 317 318 320 321 323 326 328 329 330 332 335 336 336 335 334 333 333 333 332 332 333 334 335 336 337 337 336 334 333 333 334 332 325 321 318 315 314 314 316 317 317 317 316 316 315 314 315 312 309 308 310 309 309 310 310 310 311 309 307 306 306 306 304 304 305 305 306 308
253 258 262 267 270 273 278 282 285 288 291 293 296 298 300 302 304 306 308 311 314 315 317 318 320 323 324 324 326 329 331 332 331 331 330 330 330 330 329 329 330 332 332 333 335 335 336 335 332 331 332 332 329 325 323 320 317 316 319 321 321 322 321 319 317 317 317 313 311 310 310 308 306 308 307 305 307 305 304 305 305 306 305 306 307 308 308 309
253 258 262 266 270 274 277 280 284 286 289 291 293 295 297 299 301 304 307 309 311 313 315 316 317 318 319 320 323 325 327 328 327 327 328 328 328 327 327 327 327 329 329 330 331 332 332 333 332 330 329 329 328 326 325 325 323 321 322 322 323 323 321 319 316 317 318 312 309 308 308 307 306 308 308 307 308 306 307 308 308 308 308 308 309 309 310 311
254 258 262 266 270 273 276 279 282 284 287 289 291 292 294 297 299 302 304 306 308 310 311 313 313 315 317 319 321 322 324 324 324 324 325 325 325 325 324 324 324 326 327 328 329 329 329 330 330 330 329 327 326 325 324 325 324 322 321 320 320 319 318 317 314 315 317 314 310 309 310 312 311 310 312 315 314 312 313 313 312 312 311 311 311 310 311 312
254 258 261 265 269 272 275 278 280 282 285 287 289 290 292 295 296 299 301 303 305 307 309 311 312 314 316 317 318 319 320 321 321 322 322 322 323 323 322 322 322 324 325 326 327 327 328 329 329 329 329 328 326 324 322 322 322 321 321 320 319 318 318 317 315 317 319 316 314 313 314 317 316 313 316 318 317 317 317 315 314 314 312 311 311 311 312 312
255 258 261 264 268 271 274 276 279 281 282 284 287 289 291 293 294 297 300 303 306 307 309 311 312 312 314 315 316 316 317 318 319 319 319 320 320 321 321 320 321 322 323 324 325 327 328 328 329 328 328 327 325 323 321 320 320 320 320 320 321 320 320 319 317 319 320 317 316 315 316 319 317 313 316 318 317 319 318 315 315 314 312 311 311 312 312 312
256 258 261 264 267 270 273 275 278 279 281 283 285 287 289 290 291 293 295 297 301 304 307 309 310 311 312 313 313 313 313 315 316 316 317 318 318 319 320 319 320 320 322 324 325 328 328 328 328 328 328 327 326 324 321 320 319 318 318 319 319 318 319 319 318 319 319 317 317 315 316 319 316 313 316 316 317 318 315 314 314 313 311 311 310 312 313 313
258 260 262 264 267 270 272 274 276 278 280 282 284 285 287 289 290 291 292 292 293 297 301 303 305 306 307 309 309 309 310 312 314 314 315 317 317 318 319 319 320 320 322 323 324 326 327 327 328 328 327 327 327 325 323 321 318 316 317 318 318 317 318 318 318 318 317 317 316 315 316 317 315 314 315 315 317 315 313 313 313 312 311 310 311 312 313 313
260 262 264 266 268 270 272 274 276 278 280 281 283 284 286 288 289 291 292 292 292 294 297 299 300 301 303 305 305 306 308 310 312 313 314 315 317 317 318 319 320 320 321 322 322 325 327 327 327 327 327 327 326 325 323 320 318 316 316 317 317 316 317 318 317 316 316 316 315 314 316 317 315 314 315 316 316 313 312 313 312 312 311 310 311 313 313 314
262 263 265 267 269 270 272 273 275 277 278 280 282 283 286 287 289 290 291 292 293 295 296 296 297 298 300 302 303 304 307 309 311 312 313 314 315 316 317 318 319 320 320 320 321 325 327 326 325 325 325 325 324 324 322 320 318 317 318 318 318 316 316 316 315 314 315 315 314 314 316 316 314 314 316 316 315 314 314 314 312 312 311 310 312 313 313 314
263 264 266 268 269 271 272 273 275 276 277 279 281 283 284 286 288 289 290 291 291 294 296 295 296 298 299 300 302 304 307 308 310 311 312 313 314 315 316 317 318 319 319 318 320 323 324 324 324 324 324 323 322 321 320 319 318 318 320 320 319 319 318 317 316 315 315 316 315 315 317 315 313 316 317 316 315 315 314 313 312 311 310 310 312 313 313 314
264 266 267 269 270 271 272 273 275 276 277 278 280 282 284 285 287 288 290 290 291 295 296 295 297 298 299 300 303 305 307 308 309 310 312 312 312 314 314 316 317 318 318 316 318 321 322 322 323 323 322 322 321 319 318 316 316 316 318 319 320 321 321 320 319 317 317 317 315 317 317 313 314 317 316 315 315 314 313 312 311 309 309 310 311 311 313 314
266 267 269 270 271 272 272 273 274 275 277 278 280 282 283 285 286 288 289 288 290 296 296 295 297 297 299 301 303 305 307 308 309 310 311 311 312 312 313 315 316 317 317 315 317 320 320 321 321 321 321 320 319 319 317 315 314 314 315 316 318 320 320 321 319 317 317 316 316 318 315 311 315 316 315 316 315 314 313 311 310 309 308 310 311 312 314 314
267 268 270 270 271 271 272 273 274 275 276 278 279 281 282 284 285 287 287 287 292 297 296 295 297 297 298 300 301 304 306 307 308 309 310 310 311 310 310 313 313 315 316 315 317 319 319 320 320 319 319 318 318 318 316 315 313 312 312 313 315 316 317 318 317 316 317 315 317 318 312 312 314 314 315 316 314 314 313 311 309 308 308 310 312 314 315 315
266 268 269 269 270 271 272 273 274 275 276 277 278 280 281 282 283 284 284 286 293 297 295 296 297 297 298 299 301 303 305 306 307 309 309 310 310 309 310 311 312 313 314 314 315 316 317 319 318 319 319 317 317 317 316 314 312 311 311 311 313 314 315 316 315 316 316 315 318 316 312 313 314 315 316 315 314 315 314 311 309 309 310 312 314 315 316 315
265 266 267 269 269 270 272 273 273 274 275 276 278 279 280 280 281 281 280 286 294 294 294 296 297 296 296 298 299 303 305 306 307 308 309 309 309 309 310 311 312 313 313 313 313 313 315 316 316 318 318 317 316 316 316 314 313 312 312 312 313 313 314 314 314 315 314 315 317 315 314 314 314 318 319 316 317 317 314 310 308 309 312 313 315 316 316 315
264 265 266 268 269 270 271 272 272 274 275 276 277 278 278 279 278 277 281 289 292 291 293 295 294 294 295 296 299 302 304 304 305 308 308 308 307 309 309 309 311 311 310 310 310 311 312 313 315 317 317 316 317 317 317 315 314 314 314 315 313 312 313 313 312 314 314 316 317 316 316 315 317 321 320 317 319 317 313 310 309 311 313 314 315 316 315 315
263 264 266 267 268 269 269 270 272 273 274 275 276 277 277 277 276 277 282 288 288 290 293 292 291 292 293 295 298 302 304 304 305 307 308 306 306 308 308 309 311 310 309 310 310 311 312 313 315 316 315 316 317 318 317 316 315 314 315 315 313 313 314 312 313 315 315 317 317 317 318 317 319 322 318 317 319 316 312 310 311 313 312 313 316 315 314 315
262 264 265 266 267 267 268 269 271 272 273 275 275 276 276 275 277 281 284 284 284 288 290 290 291 291 291 294 298 301 302 303 304 306 306 305 304 306 308 309 310 309 308 309 310 311 311 312 314 314 314 314 316 317 317 316 315 314 315 314 313 315 315 313 314 315 316 318 318 319 320 318 321 321 317 317 318 314 311 311 311 311 311 314 315 314 314 313
261 262 264 265 266 267 267 269 270 271 273 274 275 275 274 275 279 284 285 284 284 285 287 288 289 288 290 294 297 300 302 301 303 304 303 302 302 304 306 308 309 306 305 306 308 309 309 311 313 313 313 313 314 315 315 315 314 313 314 312 313 316 316 315 316 315 316 318 318 320 319 318 320 318 316 317 317 312 311 311 310 310 312 315 315 313 312 310
261 262 263 264 265 266 267 268 270 271 272 273 274 273 274 277 281 284 284 284 285 285 286 286 285 287 291 294 296 299 300 301 302 302 301 300 301 302 305 308 308 305 304 306 307 307 308 310 311 310 311 311 312 312 312 313 313 312 312 311 313 315 316 317 317 316 317 317 319 320 319 318 318 317 317 317 315 312 311 311 310 311 313 314 313 311 310 309
261 262 263 264 265 266 267 269 270 271 272 272 272 272 275 278 281 283 283 284 284 284 285 284 284 287 290 292 294 297 298 299 300 300 299 299 299 301 304 307 306 305 305 306 306 306 307 309 309 309 309 309 310 309 310 312 313 311 310 311 313 314 317 319 318 317 316 316 319 320 319 318 316 316 318 316 313 313 311 310 309 311 312 312 310 310 309 309
261 262 262 263 265 266 267 269 270 270 271 271 271 273 276 279 281 282 282 282 282 282 283 283 285 288 289 291 294 296 297 298 298 298 298 298 298 300 304 305 305 305 305 305 305 305 306 307 307 307 307 308 308 308 309 310 310 310 309 310 313 315 318 319 317 315 314 314 317 319 319 317 315 316 316 314 313 313 310 308 308 310 311 310 309 309 308 309
261 261 262 263 265 266 268 268 269 270 270 270 271 274 277 279 281 281 279 279 280 281 281 283 285 287 288 291 294 295 296 297 296 297 298 297 298 300 302 304 304 304 305 304 303 304 305 305 305 306 307 307 307 308 309 309 309 310 309 309 313 317 318 317 313 311 312 312 314 318 319 316 316 316 313 313 314 311 308 306 307 309 310 309 308 307 308 309
260 261 262 263 264 266 267 268 269 269 269 270 272 275 277 279 280 278 277 278 278 279 280 282 284 285 288 291 293 294 294 294 295 296 297 297 298 300 301 303 303 303 303 302 302 303 304 305 305 306 307 307 308 308 308 309 310 309 308 309 314 317 316 313 310 309 311 310 310 315 318 316 316 315 312 313 313 308 306 305 307 309 308 307 307 306 307 309
260 261 261 262 263 264 266 267 267 268 269 271 273 275 277 279 278 277 276 277 278 279 280 281 282 284 287 290 291 292 292 292 294 295 295 296 298 299 300 301 301 302 302 302 302 303 304 304 304 305 307 307 307 307 308 309 309 308 308 310 315 316 313 310 309 310 310 308 308 311 314 315 316 313 312 313 311 307 305 305 307 308 307 308 307 306 308 310
260 260 261 262 262 263 264 265 266 268 269 271 273 275 277 278 278 277 276 277 277 278 278 280 282 284 287 288 289 290 290 291 293 294 294 295 297 298 298 299 300 301 302 302 303 303 303 303 304 305 306 306 306 307 308 309 308 307 307 310 313 313 311 308 308 309 308 306 307 308 309 313 316 312 311 312 308 305 304 304 306 307 307 308 306 307 309 311
260 261 262 262 262 262 262 263 265 266 268 271 273 275 276 276 276 277 276 276 276 277 278 279 282 284 286 287 287 288 288 290 292 293 293 294 295 295 295 297 300 301 301 301 301 302 302 302 303 303 304 304 305 306 307 307 308 306 306 309 311 311 310 307 307 309 308 305 307 306 305 312 315 311 309 309 306 304 303 304 305 306 307 307 306 308 311 312
260 261 262 262 262 262 262 262 264 266 268 271 273 273 273 274 275 275 276 277 277 277 278 280 282 283 284 285 285 286 288 290 291 292 292 292 293 293 294 297 299 300 300 300 300 301 301 301 302 302 303 303 304 305 306 307 306 306 307 309 310 309 308 307 307 308 305 306 308 304 304 312 314 307 306 307 305 304 302 303 305 307 307 306 306 310 311 312
260 260 261 261 262 262 262 263 264 266 268 269 270 271 272 273 274 274 276 277 277 277 278 280 282 282 283 283 283 285 288 290 290 289 289 290 290 292 295 297 299 299 298 297 298 300 299 299 301 302 301 302 303 305 306 306 305 306 307 308 308 307 305 306 307 304 303 308 309 302 304 312 310 304 307 307 304 303 302 303 306 307 306 306 308 310 311 313
259 260 260 261 261 262 262 263 264 265 266 267 268 270 272 272 273 274 275 276 276 277 279 280 282 282 283 283 284 286 289 290 289 287 287 288 290 292 295 296 297 296 296 296 297 297 296 297 299 299 299 301 303 304 304 304 304 305 306 306 305 304 304 305 304 302 305 310 307 302 305 309 305 305 309 307 303 303 303 304 306 307 306 307 309 310 311 313
258 259 260 260 261 262 263 264 264 264 265 267 268 269 270 271 272 273 273 273 275 278 279 280 281 282 282 283 286 288 288 287 286 285 286 288 291 293 293 294 294 295 295 296 296 295 294 296 297 296 296 299 302 303 302 303 303 303 304 304 302 303 304 304 302 304 308 307 303 304 306 303 303 307 308 305 303 303 304 305 306 306 307 308 309 310 312 314
257 258 260 261 261 262 263 263 264 265 266 267 268 268 269 270 271 271 271 272 275 277 279 280 280 281 283 285 287 287 285 284 284 285 287 289 290 291 291 292 293 293 293 294 294 293 294 295 296 295 295 299 301 301 301 302 302 303 303 302 301 302 304 304 304 307 307 300 300 307 304 299 304 308 305 303 302 303 304 304 305 306 307 309 309 311 313 314
257 259 260 260 261 261 263 264 265 266 266 265 266 267 268 269 269 270 272 273 274 275 277 278 279 281 283 285 285 284 282 282 283 285 288 289 288 289 290 292 292 292 292 293 293 292 293 294 295 294 295 298 300 300 301 301 300 301 301 300 301 303 304 306 306 306 301 296 301 305 299 299 307 308 304 303 302 303 304 303 304 307 308 308 309 312 313 314
257 258 259 260 261 262 264 265 264 264 265 265 266 266 266 266 268 270 272 274 275 276 277 278 278 281 282 282 282 280 280 282 284 286 288 287 287 289 290 290 290 291 293 293 292 291 292 293 294 294 295 297 298 298 298 297 298 300 299 299 302 305 307 307 305 302 298 297 301 301 298 302 309 306 303 303 303 303 303 303 305 307 307 307 310 312 314 314
258 259 260 261 261 262 262 263 263 264 265 265 265 266 266 266 268 271 272 275 277 277 277 278 279 281 281 279 278 279 280 282 284 285 286 286 287 288 289 289 290 291 292 291 291 290 290 292 293 293 294 295 296 296 295 296 297 297 297 300 305 308 307 305 304 302 299 299 300 299 299 305 307 302 302 303 302 302 302 303 306 306 306 308 311 312 313 314
258 259 259 260 260 261 262 263 263 263 263 264 265 266 268 269 270 272 273 274 274 275 277 280 281 280 279 278 278 280 282 283 284 285 285 285 286 287 287 287 289 291 291 289 289 288 288 291 292 293 293 293 294 293 294 296 295 294 299 305 308 306 305 304 303 301 299 298 299 299 301 306 304 301 302 303 301 302 302 304 305 304 306 309 311 312 313 314
257 258 258 260 260 260 261 262 262 262 263 264 266 266 267 269 270 271 271 271 273 276 279 280 279 278 278 279 281 282 283 284 284 284 284 285 286 287 287 288 289 290 289 287 287 287 288 291 292 291 292 293 293 294 295 295 293 296 302 306 305 304 304 303 301 299 298 297 298 300 303 304 303 302 303 301 301 302 303 304 304 304 306 310 311 312 313 314
Height
5902 5902 5902 5902 5902 5901 5901 5901 5900 5900 5899 5899 5898 5898 5897 5896 5895 5894 5893 5891 5890 5889 5888 5887 5885 5884 5883 5881 5879 5878 5876 5874 5872 5870 5868 5866 5865 5863 5862 5861 5860 5860 5859 5858 5857 5857 5856 5855 5854 5853 5852 5851 5850 5849 5849 5848 5846 5845 5844 5843 5842 5841 5841 5840 5840 5840 5839 5838 5837 5835 5834 5831 5829 5828 5826 5822 5821 5822 5823 5821 5818 5820 5819 5817 5815 5814 5812 5811
5902 5902 5902 5901 5901 5900 5900 5900 5899 5899 5899 5898 5897 5897 5897 5896 5894 5893 5892 5891 5889 5888 5887 5886 5885 5883 5882 5880 5879 5877 5876 5874 5872 5871 5868 5867 5865 5863 5862 5861 5860 5859 5858 5857 5856 5855 5855 5854 5853 5852 5850 5849 5848 5847 5846 5845 5844 5843 5842 5841 5840 5839 5838 5838 5838 5838 5837 5836 5835 5833 5831 5829 5827 5825 5823 5820 5818 5819 5820 5818 5816 5816 5816 5814 5812 5810 5809 5807
5901 5901 5901 5900 5900 5900 5899 5899 5899 5898 5898 5897 5897 5896 5896 5895 5893 5892 5891 5890 5889 5887 5886 5885 5884 5882 5881 5879 5878 5877 5875 5874 5872 5871 5869 5867 5865 5863 5862 5860 5859 5858 5857 5856 5855 5854 5853 5852 5851 5850 5849 5847 5846 5845 5844 5843 5842 5841 5839 5838 5837 5837 5837 5836 5835 5835 5835 5834 5832 5830 5829 5827 5825 5822 5819 5816 5815 5816 5816 5815 5813 5812 5811 5810 5809 5807 5805 5804
5900 5900 5900 5899 5899 5899 5898 5898 5898 5897 5897 5896 5896 5895 5894 5894 5893 5891 5890 5889 5888 5887 5885 5884 5883 5881 5880 5878 5877 5876 5874 5873 5872 5870 5869 5867 5865 5863 5861 5860 5858 5857 5856 5855 5854 5852 5851 5850 5849 5848 5847 5845 5845 5843 5842 5841 5839 5839 5838 5836 5835 5835 5835 5834 5833 5833 5832 5831 5829 5827 5826 5824 5822 5820 5817 5813 5812 5814 5812 5811 5809 5807 5807 5805 5804 5802 5801 5799
5898 5898 5898 5898 5898 5897 5897 5897 5897 5896 5896 5896 5895 5894 5893 5892 5891 5890 5889 5888 5887 5886 5885 5883 5882 5881 5879 5878 5876 5875 5874 5872 5871 5870 5868 5866 5865 5863 5861 5859 5858 5856 5855 5854 5853 5851 5850 5849 5847 5845 5844 5843 5842 5842 5840 5839 5837 5837 5836 5834 5832 5832 5832 5831 5831 5830 5829 5828 5826 5824 5823 5821 5818 5817 5814 5810 5809 5810 5810 5808 5806 5805 5803 5801 5799 5798 5796 5794
5897 5897 5897 5897 5896 5896 5896 5896 5896 5895 5895 5894 5894 5893 5892 5891 5890 5889 5888 5887 5886 5885 5884 5883 5881 5880 5878 5877 5875 5874 5873 5871 5870 5868 5867 5865 5864 5862 5860 5859 5857 5856 5854 5853 5851 5850 5849 5847 5846 5844 5843 5841 5840 5839 5838 5837 5835 5834 5834 5832 5830 5829 5829 5828 5827 5827 5826 5824 5823 5821 5820 5817 5815 5813 5811 5809 5807 5806 5806 5805 5803 5802 5800 5797 5796 5794 5792 5790
5895 5895 5895 5895 5895 5895 5894 5894 5894 5894 5894 5893 5893 5892 5891 5890 5889 5888 5887 5886 5885 5884 5882 5881 5880 5879 5877 5876 5875 5873 5872 5870 5868 5867 5865 5864 5862 5861 5859 5858 5857 5855 5853 5852 5850 5849 5847 5845 5844 5842 5841 5839 5838 5837 5836 5835 5833 5831 5831 5830 5829 5827 5825 5825 5824 5823 5822 5821 5819 5817 5816 5814 5811 5809 5807 5806 5805 5803 5803 5801 5799 5797 5795 5793 5791 5789 5787 5785
5893 5893 5893 5893 5893 5893 5893 5893 5892 5892 5892 5892 5891 5891 5890 5889 5888 5887 5886 5885 5884 5882 5881 5880 5879 5878 5876 5875 5874 5872 5871 5869 5867 5866 5864 5863 5861 5860 5859 5857 5856 5854 5853 5851 5849 5847 5846 5844 5842 5840 5839 5837 5836 5835 5834 5833 5831 5829 5827 5827 5826 5825 5823 5822 5821 5820 5819 5817 5816 5813 5812 5810 5807 5806 5803 5802 5802 5801 5799 5798 5795 5793 5790 5789 5787 5785 5782 5780
5891 5891 5891 5892 5892 5892 5891 5891 5891 5891 5891 5890 5890 5889 5889 5888 5887 5886 5885 5884 5883 5881 5880 5878 5877 5876 5875 5874 5873 5871 5870 5868 5866 5865 5864 5862 5861 5859 5858 5856 5855 5854 5852 5850 5848 5846 5844 5842 5841 5839 5837 5835 5834 5833 5831 5830 5829 5827 5825 5824 5823 5822 5821 5820 5819 5817 5815 5814 5812 5809 5808 5807 5805 5802 5799 5799 5799 5797 5796 5793 5791 5788 5786 5784 5782 5780 5778 5776
5889 5889 5889 5890 5890 5890 5890 5889 5889 5889 5889 5888 5888 5887 5887 5886 5885 5884 5883 5882 5881 5880 5879 5877 5876 5875 5874 5873 5871 5870 5869 5867 5866 5864 5863 5862 5860 5858 5857 5855 5854 5852 5851 5849 5847 5845 5843 5841 5839 5837 5835 5834 5832 5830 5829 5827 5827 5825 5823 5821 5820 5819 5818 5817 5816 5814 5812 5810 5808 5805 5803 5802 5801 5798 5794 5794 5794 5793 5791 5788 5785 5783 5781 5779 5777 5775 5773 5772
5886 5887 5887 5888 5888 5888 5888 5887 5887 5887 5887 5886 5886 5885 5885 5884 5884 5883 5882 5881 5880 5879 5878 5876 5875 5874 5873 5871 5870 5869 5868 5866 5865 5863 5862 5860 5859 5857 5856 5854 5853 5851 5849 5847 5845 5843 5841 5839 5837 5835 5833 5832 5830 5829 5827 5825 5824 5823 5821 5819 5818 5817 5815 5814 5813 5811 5808 5806 5804 5802 5799 5798 5797 5793 5790 5790 5790 5790 5787 5784 5782 5779 5776 5775 5773 5771 5769 5768
5884 5884 5885 5885 5886 5885 5885 5885 5885 5885 5885 5884 5884 5884 5883 5882 5882 5881 5880 5879 5878 5877 5876 5875 5874 5873 5871 5870 5869 5868 5866 5865 5863 5862 5860 5859 5857 5856 5855 5853 5852 5850 5848 5846 5844 5842 5840 5838 5835 5833 5831 5830 5828 5826 5825 5823 5822 5820 5819 5817 5816 5814 5812 5811 5810 5808 5806 5804 5801 5798 5795 5794 5792 5788 5784 5785 5786 5785 5782 5779 5777 5774 5772 5770 5768 5767 5764 5763
5882 5882 5882 5883 5883 5883 5883 5883 5883 5883 5882 5882 5882 5882 5881 5880 5880 5879 5878 5877 5876 5875 5874 5873 5872 5871 5870 5869 5867 5866 5864 5863 5862 5860 5859 5857 5856 5855 5853 5852 5850 5848 5846 5844 5842 5840 5838 5836 5834 5832 5829 5828 5825 5823 5821 5819 5818 5817 5816 5815 5813 5811 5809 5808 5807 5806 5804 5802 5798 5795 5792 5789 5787 5783 5779 5780 5781 5779 5776 5773 5771 5769 5767 5765 5763 5762 5759 5757
5879 5880 5880 5880 5881 5881 5881 5881 5881 5880 5880 5880 5880 5879 5879 5878 5877 5877 5876 5875 5874 5873 5872 5871 5870 5869 5868 5867 5866 5864 5863 5861 5860 5858 5857 5855 5854 5853 5851 5850 5848 5846 5844 5842 5840 5838 5836 5834 5832 5830 5828 5825 5823 5821 5818 5816 5815 5813 5812 5811 5810 5808 5805 5804 5803 5802 5801 5799 5794 5791 5788 5784 5781 5777 5773 5775 5776 5774 5771 5769 5766 5764 5762 5760 5758 5757 5755 5752
5877 5877 5877 5878 5878 5878 5878 5878 5878 5878 5878 5877 5877 5877 5876 5875 5874 5874 5873 5873 5872 5871 5870 5869 5868 5867 5866 5865 5864 5862 5861 5859 5858 5856 5855 5854 5852 5851 5849 5847 5845 5844 5841 5840 5838 5836 5834 5832 5830 5828 5826 5824 5821 5818 5816 5813 5812 5811 5809 5808 5807 5805 5802 5799 5798 5798 5796 5794 5790 5787 5785 5781 5777 5773 5768 5769 5771 5769 5767 5765 5762 5760 5758 5755 5754 5751 5749 5747
5874 5874 5874 5875 5875 5875 5876 5876 5876 5875 5875 5875 5874 5874 5874 5873 5872 5871 5870 5870 5869 5868 5868 5866 5865 5865 5864 5863 5862 5860 5859 5857 5856 5854 5853 5851 5850 5848 5847 5845 5843 5841 5839 5837 5835 5833 5831 5829 5827 5825 5824 5822 5819 5816 5813 5811 5807 5805 5805 5804 5803 5801 5799 5796 5794 5794 5794 5790 5787 5783 5782 5780 5776 5771 5766 5765 5766 5765 5762 5760 5757 5755 5752 5749 5748 5746 5744 5741
5871 5871 5871 5871 5872 5872 5873 5873 5873 5872 5872 5872 5872 5871 5871 5870 5869 5868 5867 5866 5866 5866 5865 5864 5863 5862 5862 5861 5859 5858 5856 5855 5854 5852 5850 5849 5848 5846 5844 5842 5840 5839 5837 5835 5833 5831 5829 5827 5825 5822 5820 5819 5816 5813 5810 5808 5805 5801 5800 5798 5797 5796 5795 5793 5790 5790 5791 5788 5784 5780 5778 5777 5773 5769 5765 5763 5763 5761 5757 5755 5752 5749 5746 5743 5742 5740 5737 5735
5868 5868 5868 5868 5869 5869 5869 5870 5869 5869 5869 5869 5869 5868 5868 5867 5866 5865 5864 5863 5862 5862 5862 5861 5860 5859 5858 5857 5856 5855 5854 5853 5851 5849 5848 5846 5845 5843 5841 5840 5838 5836 5834 5832 5830 5828 5826 5824 5822 5819 5817 5815 5813 5810 5807 5805 5803 5800 5798 5796 5795 5793 5792 5790 5786 5786 5786 5783 5780 5777 5775 5774 5770 5765 5763 5761 5759 5756 5753 5749 5746 5743 5740 5738 5736 5733 5731 5729
5865 5865 5865 5865 5866 5866 5866 5866 5866 5866 5866 5865 5865 5865 5864 5864 5863 5862 5862 5860 5859 5858 5859 5858 5857 5855 5855 5854 5853 5852 5851 5850 5848 5846 5845 5843 5842 5841 5838 5836 5835 5833 5831 5829 5827 5824 5822 5820 5817 5815 5813 5810 5808 5806 5804 5801 5799 5797 5795 5793 5791 5789 5788 5786 5782 5781 5780 5777 5774 5772 5770 5770 5765 5759 5758 5758 5754 5751 5748 5744 5741 5738 5734 5732 5730 5727 5725 5722
5862 5862 5862 5862 5862 5863 5862 5862 5862 5862 5862 5862 5862 5861 5861 5860 5859 5859 5859 5857 5855 5854 5854 5853 5853 5852 5851 5850 5849 5848 5847 5846 5845 5843 5842 5840 5838 5837 5836 5833 5831 5829 5827 5825 5824 5821 5819 5817 5815 5812 5809 5807 5805 5803 5801 5798 5795 5793 5791 5789 5787 5784 5783 5780 5777 5776 5775 5771 5768 5766 5765 5765 5761 5755 5753 5752 5749 5746 5743 5739 5737 5733 5729 5726 5723 5720 5718 5714
5858 5858 5859 5859 5859 5859 5859 5859 5859 5859 5859 5859 5858 5858 5857 5857 5856 5856 5856 5856 5854 5852 5850 5849 5849 5848 5847 5847 5846 5845 5844 5843 5842 5840 5838 5837 5835 5834 5832 5830 5828 5826 5824 5821 5819 5818 5815 5813 5811 5809 5806 5804 5801 5799 5797 5795 5792 5789 5787 5785 5783 5780 5778 5775 5772 5770 5769 5766 5763 5760 5760 5760 5757 5751 5748 5747 5744 5741 5737 5734 5732 5729 5724 5721 5717 5714 5711 5706
5854 5855 5855 5856 5856 5856 5855 5855 5855 5855 5855 5855 5855 5854 5853 5853 5852 5851 5852 5853 5854 5851 5849 5848 5846 5845 5844 5844 5843 5842 5841 5840 5839 5837 5835 5834 5832 5830 5828 5826 5824 5821 5820 5818 5816 5815 5813 5810 5808 5805 5802 5800 5798 5796 5793 5791 5789 5786 5784 5782 5779 5775 5774 5771 5768 5766 5763 5761 5758 5755 5754 5754 5750 5746 5744 5741 5739 5736 5732 5729 5726 5723 5719 5714 5711 5708 5704 5698
5851 5851 5852 5852 5852 5852 5852 5852 5851 5851 5851 5851 5851 5850 5849 5848 5847 5846 5846 5847 5849 5849 5847 5846 5844 5843 5842 5841 5839 5838 5837 5837 5835 5833 5831 5829 5828 5826 5824 5822 5820 5817 5815 5814 5812 5811 5809 5806 5804 5801 5799 5797 5795 5792 5790 5788 5785 5783 5780 5778 5775 5771 5769 5767 5764 5761 5759 5756 5753 5750 5749 5748 5743 5741 5739 5736 5734 5730 5726 5723 5719 5716 5713 5708 5705 5702 5697 5691
5847 5847 5848 5848 5848 5848 5848 5848 5848 5848 5847 5847 5846 5846 5845 5844 5843 5842 5841 5840 5843 5845 5844 5842 5841 5840 5839 5838 5836 5835 5834 5833 5832 5830 5828 5826 5824 5822 5820 5818 5817 5815 5812 5810 5808 5807 5805 5803 5800 5798 5796 5794 5792 5789 5786 5783 5781 5779 5777 5774 5771 5768 5765 5763 5760 5757 5755 5752 5748 5744 5744 5742 5738 5735 5734 5731 5728 5723 5720 5716 5712 5709 5705 5701 5698 5694 5689 5684
5843 5843 5844 5844 5844 5845 5844 5844 5844 5844 5843 5842 5842 5842 5841 5840 5838 5837 5836 5835 5837 5841 5841 5838 5837 5836 5835 5833 5832 5831 5830 5829 5828 5826 5824 5822 5820 5818 5816 5814 5812 5811 5809 5806 5805 5804 5802 5799 5796 5794 5793 5791 5789 5786 5783 5780 5777 5775 5773 5770 5767 5764 5761 5758 5755 5751 5749 5747 5743 5739 5737 5734 5731 5729 5727 5724 5720 5717 5714 5711 5707 5703 5698 5694 5691 5687 5682 5678
5839 5839 5839 5840 5840 5840 5840 5840 5840 5839 5839 5838 5837 5837 5836 5835 5834 5832 5831 5829 5831 5836 5836 5834 5833 5832 5830 5829 5828 5827 5825 5824 5823 5822 5820 5818 5817 5815 5812 5810 5807 5807 5805 5802 5801 5800 5798 5796 5793 5790 5789 5787 5784 5782 5780 5777 5773 5771 5769 5766 5763 5760 5757 5754 5750 5746 5744 5741 5737 5735 5730 5724 5723 5723 5720 5717 5714 5711 5707 5704 5701 5697 5692 5689 5685 5681 5676 5671
5835 5835 5835 5835 5835 5836 5835 5836 5835 5835 5834 5833 5833 5833 5832 5831 5829 5828 5826 5822 5825 5831 5831 5829 5829 5827 5826 5825 5823 5822 5821 5820 5818 5818 5816 5814 5812 5810 5808 5807 5803 5801 5800 5796 5795 5795 5793 5792 5790 5786 5784 5782 5780 5778 5775 5772 5769 5766 5764 5761 5758 5755 5752 5749 5745 5741 5739 5735 5733 5732 5726 5718 5717 5717 5714 5710 5706 5704 5701 5697 5693 5688 5684 5682 5678 5674 5668 5663
5830 5830 5830 5830 5830 5831 5830 5831 5831 5830 5829 5829 5829 5828 5827 5827 5825 5824 5821 5817 5820 5825 5825 5824 5823 5821 5820 5820 5819 5818 5817 5815 5814 5813 5812 5810 5808 5806 5804 5804 5801 5798 5796 5792 5790 5789 5787 5786 5785 5782 5780 5777 5774 5772 5769 5767 5763 5761 5759 5756 5753 5750 5747 5744 5740 5737 5733 5729 5728 5727 5720 5713 5711 5710 5709 5705 5699 5697 5694 5689 5685 5681 5677 5675 5670 5665 5660 5654
5825 5825 5825 5825 5825 5825 5825 5825 5825 5825 5824 5824 5823 5823 5823 5821 5820 5820 5816 5815 5818 5819 5817 5818 5818 5816 5815 5814 5814 5814 5813 5811 5809 5808 5807 5805 5804 5802 5799 5798 5797 5794 5792 5788 5786 5784 5782 5781 5779 5777 5774 5771 5769 5767 5764 5762 5758 5756 5754 5751 5748 5745 5742 5739 5734 5731 5727 5723 5723 5720 5713 5708 5705 5703 5702 5699 5695 5693 5688 5681 5676 5673 5669 5666 5662 5657 5652 5647
5819 5819 5819 5819 5820 5820 5820 5820 5820 5820 5819 5819 5818 5818 5817 5816 5815 5814 5811 5813 5817 5814 5811 5813 5812 5810 5809 5809 5809 5809 5808 5806 5805 5803 5802 5800 5798 5797 5795 5793 5791 5789 5787 5784 5781 5779 5778 5777 5775 5773 5769 5766 5764 5762 5759 5756 5753 5751 5748 5746 5743 5739 5736 5733 5729 5726 5722 5718 5718 5713 5708 5702 5697 5696 5693 5688 5686 5685 5682 5676 5669 5666 5663 5659 5654 5649 5644 5639
5813 5813 5814 5814 5814 5814 5815 5814 5815 5815 5813 5813 5813 5812 5811 5810 5809 5808 5808 5812 5812 5809 5808 5808 5806 5804 5804 5804 5804 5804 5803 5800 5800 5800 5797 5795 5793 5792 5790 5789 5787 5784 5781 5780 5777 5775 5774 5773 5771 5769 5765 5762 5759 5756 5753 5750 5748 5746 5743 5740 5737 5733 5731 5727 5722 5720 5716 5713 5711 5706 5702 5696 5691 5689 5684 5680 5679 5674 5669 5666 5661 5658 5655 5651 5646 5642 5637 5633
5807 5808 5808 5808 5808 5809 5809 5809 5809 5809 5808 5808 5807 5805 5805 5803 5800 5804 5809 5810 5806 5804 5804 5803 5801 5799 5799 5798 5799 5799 5798 5795 5794 5794 5793 5789 5787 5787 5786 5784 5783 5777 5773 5772 5769 5767 5765 5765 5765 5763 5759 5756 5753 5750 5747 5744 5742 5739 5738 5734 5730 5727 5725 5720 5716 5712 5708 5706 5704 5700 5696 5690 5688 5686 5677 5674 5676 5671 5663 5658 5653 5650 5647 5643 5640 5635 5631 5626
5801 5802 5802 5803 5803 5803 5803 5803 5803 5803 5802 5802 5800 5799 5798 5794 5794 5800 5806 5806 5803 5801 5800 5797 5795 5794 5793 5793 5794 5794 5793 5790 5789 5788 5787 5784 5782 5782 5780 5780 5778 5773 5767 5764 5762 5759 5757 5756 5757 5755 5752 5750 5748 5745 5741 5739 5735 5732 5731 5728 5724 5721 5717 5713 5710 5706 5702 5700 5697 5694 5690 5684 5683 5682 5674 5671 5671 5666 5660 5655 5649 5645 5641 5637 5634 5628 5623 5619
5796 5796 5797 5797 5797 5797 5798 5798 5798 5797 5796 5795 5793 5791 5789 5787 5792 5798 5800 5799 5798 5798 5797 5793 5790 5787 5787 5788 5789 5789 5787 5785 5784 5784 5782 5779 5777 5777 5777 5776 5774 5769 5764 5761 5758 5755 5751 5750 5750 5748 5745 5743 5742 5739 5736 5733 5730 5726 5724 5720 5718 5715 5710 5706 5703 5698 5697 5695 5692 5690 5685 5679 5678 5675 5668 5667 5665 5659 5654 5651 5645 5640 5635 5631 5627 5622 5616 5612
5790 5790 5791 5791 5791 5791 5792 5792 5792 5792 5790 5788 5786 5782 5780 5784 5790 5794 5793 5793 5792 5791 5791 5789 5784 5782 5783 5783 5783 5784 5782 5779 5778 5777 5775 5773 5771 5771 5772 5771 5769 5765 5760 5757 5754 5749 5746 5744 5743 5741 5739 5737 5735 5733 5730 5728 5725 5720 5716 5713 5712 5709 5703 5700 5696 5690 5688 5687 5687 5686 5680 5674 5673 5670 5664 5660 5659 5653 5647 5643 5638 5633 5629 5625 5620 5615 5610 5604
5783 5784 5785 5785 5785 5786 5786 5786 5786 5785 5783 5781 5777 5772 5775 5783 5787 5788 5788 5788 5786 5785 5784 5781 5779 5778 5778 5778 5778 5778 5778 5775 5773 5771 5769 5767 5765 5765 5766 5765 5763 5759 5756 5753 5748 5743 5740 5739 5737 5733 5732 5731 5729 5726 5724 5721 5718 5714 5710 5707 5704 5701 5697 5693 5688 5683 5680 5677 5677 5678 5675 5669 5664 5662 5662 5655 5650 5647 5640 5635 5632 5627 5623 5619 5613 5607 5602 5597
5776 5778 5779 5780 5780 5779 5780 5780 5779 5777 5776 5773 5767 5766 5773 5779 5783 5784 5782 5781 5781 5780 5778 5774 5774 5774 5772 5772 5773 5772 5771 5769 5768 5766 5764 5762 5759 5760 5761 5759 5756 5753 5750 5747 5743 5737 5733 5732 5730 5727 5725 5724 5721 5719 5717 5715 5711 5707 5704 5700 5697 5694 5691 5686 5679 5676 5674 5670 5668 5668 5667 5663 5656 5653 5654 5651 5644 5639 5633 5628 5625 5623 5617 5612 5607 5600 5594 5590
5768 5770 5772 5774 5774 5774 5773 5773 5772 5770 5767 5762 5759 5763 5770 5774 5779 5779 5775 5775 5775 5774 5772 5769 5768 5767 5765 5766 5767 5766 5764 5763 5761 5760 5758 5755 5753 5754 5755 5753 5750 5747 5744 5740 5736 5732 5728 5724 5723 5721 5718 5716 5714 5712 5710 5707 5704 5700 5697 5694 5691 5687 5685 5682 5674 5669 5668 5663 5659 5661 5659 5655 5651 5647 5643 5644 5640 5631 5624 5621 5618 5617 5613 5606 5601 5595 5588 5584
5760 5762 5764 5768 5768 5767 5767 5766 5764 5761 5756 5754 5756 5761 5765 5769 5773 5771 5767 5768 5769 5767 5766 5765 5763 5761 5760 5761 5760 5759 5758 5756 5755 5754 5751 5748 5746 5747 5748 5746 5743 5740 5738 5733 5729 5726 5722 5717 5714 5713 5711 5708 5707 5705 5702 5700 5697 5693 5689 5687 5685 5682 5679 5677 5670 5664 5662 5656 5650 5651 5651 5648 5647 5643 5636 5636 5634 5624 5616 5613 5611 5608 5605 5601 5595 5589 5583 5579
5753 5753 5756 5761 5762 5761 5760 5757 5754 5751 5748 5749 5752 5756 5760 5762 5765 5764 5762 5761 5762 5761 5761 5759 5758 5756 5757 5757 5754 5752 5750 5748 5749 5747 5744 5742 5740 5739 5740 5739 5737 5733 5730 5727 5723 5720 5717 5711 5706 5705 5703 5701 5699 5697 5695 5693 5690 5686 5682 5680 5679 5677 5673 5668 5665 5661 5657 5649 5643 5640 5638 5640 5641 5636 5633 5631 5625 5617 5610 5605 5603 5600 5597 5593 5587 5581 5577 5572
5746 5745 5748 5754 5754 5753 5752 5748 5745 5743 5742 5743 5747 5752 5755 5755 5755 5755 5755 5754 5755 5755 5754 5753 5752 5751 5752 5751 5749 5747 5744 5742 5743 5740 5737 5736 5734 5733 5732 5732 5730 5727 5723 5720 5717 5714 5710 5704 5700 5698 5697 5694 5692 5690 5688 5686 5683 5680 5676 5674 5673 5671 5667 5661 5657 5658 5654 5644 5640 5634 5626 5632 5635 5627 5626 5625 5617 5610 5605 5599 5597 5594 5590 5585 5579 5574 5570 5564
5737 5737 5742 5745 5744 5744 5742 5738 5737 5736 5734 5738 5744 5747 5748 5748 5748 5747 5746 5746 5748 5748 5747 5748 5748 5746 5746 5745 5742 5740 5737 5737 5738 5734 5730 5729 5728 5726 5726 5726 5725 5721 5717 5714 5711 5708 5703 5698 5695 5693 5691 5688 5685 5684 5683 5680 5677 5673 5669 5668 5666 5663 5662 5655 5648 5650 5648 5638 5636 5628 5617 5624 5631 5623 5618 5617 5610 5604 5597 5593 5590 5587 5584 5578 5571 5567 5563 5557
5729 5730 5734 5735 5733 5733 5731 5729 5730 5729 5730 5735 5739 5739 5740 5741 5740 5738 5737 5737 5739 5741 5741 5742 5742 5741 5740 5739 5735 5733 5730 5731 5733 5729 5723 5722 5721 5720 5719 5720 5718 5714 5711 5707 5704 5702 5696 5691 5688 5685 5684 5682 5679 5678 5677 5673 5670 5666 5663 5661 5658 5654 5652 5649 5644 5641 5637 5634 5631 5620 5611 5618 5622 5617 5614 5610 5602 5597 5589 5585 5584 5581 5578 5572 5565 5561 5556 5550
5721 5722 5724 5724 5722 5721 5720 5721 5724 5725 5728 5729 5729 5731 5734 5734 5731 5730 5730 5729 5729 5731 5733 5735 5736 5734 5732 5731 5728 5728 5727 5724 5725 5723 5717 5714 5715 5716 5714 5712 5710 5707 5704 5701 5698 5695 5690 5686 5683 5678 5675 5674 5673 5672 5670 5666 5662 5659 5657 5654 5651 5648 5643 5640 5640 5633 5626 5632 5628 5608 5604 5614 5610 5604 5607 5604 5594 5589 5583 5577 5576 5574 5569 5564 5559 5554 5549 5544
5712 5711 5714 5714 5712 5710 5711 5715 5718 5719 5721 5721 5721 5726 5728 5724 5723 5724 5723 5720 5720 5723 5726 5728 5728 5726 5723 5722 5721 5723 5723 5718 5714 5713 5711 5708 5709 5711 5709 5705 5702 5700 5697 5694 5691 5688 5684 5680 5678 5674 5669 5666 5666 5665 5662 5659 5656 5652 5652 5649 5644 5642 5638 5634 5632 5623 5617 5625 5622 5602 5599 5608 5604 5594 5594 5592 5584 5579 5576 5570 5568 5566 5560 5555 5551 5546 5542 5538
5701 5701 5703 5704 5702 5702 5705 5708 5709 5710 5715 5715 5715 5720 5719 5715 5717 5717 5713 5712 5714 5716 5718 5720 5720 5717 5715 5714 5715 5717 5716 5710 5704 5702 5704 5704 5703 5703 5701 5697 5695 5692 5689 5687 5683 5679 5676 5673 5671 5669 5665 5662 5661 5658 5654 5653 5650 5646 5644 5643 5637 5634 5633 5629 5622 5616 5613 5610 5607 5603 5596 5595 5599 5595 5586 5581 5576 5571 5567 5564 5561 5558 5552 5547 5543 5538 5534 5529
5690 5690 5694 5695 5694 5694 5696 5698 5700 5703 5710 5709 5707 5710 5709 5707 5708 5705 5703 5707 5710 5710 5710 5711 5711 5709 5709 5709 5708 5708 5707 5700 5695 5694 5697 5699 5696 5694 5692 5689 5687 5685 5682 5679 5675 5671 5667 5665 5664 5660 5658 5658 5655 5650 5648 5645 5642 5640 5636 5633 5632 5630 5628 5623 5614 5611 5610 5597 5593 5602 5595 5582 5589 5593 5582 5573 5569 5565 5561 5558 5554 5551 5546 5540 5535 5530 5526 5521
5681 5682 5686 5686 5684 5684 5686 5690 5694 5696 5699 5698 5697 5701 5701 5697 5696 5696 5696 5700 5704 5704 5703 5703 5704 5703 5703 5702 5699 5698 5698 5691 5687 5690 5690 5689 5687 5685 5684 5683 5680 5678 5675 5671 5668 5664 5658 5657 5658 5653 5650 5651 5648 5643 5642 5638 5634 5635 5629 5622 5624 5624 5621 5617 5611 5607 5602 5589 5586 5594 5590 5579 5582 5582 5575 5568 5561 5557 5555 5551 5547 5544 5539 5534 5529 5524 5519 5513
5672 5673 5676 5675 5675 5679 5681 5683 5684 5683 5686 5689 5688 5690 5690 5687 5688 5691 5690 5689 5693 5697 5694 5693 5698 5698 5695 5694 5689 5687 5689 5684 5680 5685 5683 5677 5677 5676 5674 5674 5672 5670 5667 5663 5660 5657 5651 5649 5649 5645 5642 5643 5640 5636 5635 5631 5627 5627 5622 5615 5615 5617 5613 5609 5604 5600 5593 5585 5584 5584 5579 5579 5579 5570 5564 5562 5555 5549 5548 5544 5541 5537 5532 5527 5523 5518 5513 5507
5664 5665 5669 5667 5667 5672 5671 5671 5673 5673 5676 5679 5674 5676 5679 5680 5684 5687 5683 5682 5685 5686 5682 5683 5691 5690 5684 5683 5679 5676 5683 5680 5673 5677 5675 5667 5668 5668 5665 5665 5665 5661 5659 5656 5652 5649 5644 5641 5641 5638 5634 5634 5634 5629 5627 5624 5620 5617 5615 5611 5609 5607 5605 5600 5595 5592 5585 5579 5581 5576 5570 5575 5574 5561 5555 5555 5549 5543 5541 5538 5535 5530 5524 5520 5516 5511 5506 5501
5656 5657 5660 5655 5654 5662 5662 5660 5664 5663 5664 5666 5664 5667 5671 5672 5678 5680 5675 5674 5676 5674 5674 5677 5681 5677 5671 5671 5670 5669 5675 5672 5665 5667 5665 5658 5658 5660 5657 5657 5657 5653 5651 5647 5644 5642 5637 5633 5633 5629 5624 5625 5626 5622 5619 5618 5611 5608 5610 5610 5604 5598 5596 5593 5588 5584 5577 5573 5572 5569 5565 5566 5564 5556 5550 5548 5543 5538 5534 5531 5529 5524 5518 5514 5509 5504 5500 5494
5647 5647 5650 5645 5644 5653 5654 5650 5650 5649 5653 5659 5659 5660 5663 5664 5670 5670 5661 5663 5669 5669 5671 5671 5667 5663 5660 5660 5662 5663 5664 5661 5655 5655 5654 5649 5649 5650 5648 5648 5648 5645 5642 5639 5635 5633 5630 5626 5625 5621 5614 5614 5616 5613 5611 5609 5602 5601 5607 5606 5597 5591 5587 5584 5581 5577 5571 5566 5563 5562 5561 5557 5552 5548 5544 5540 5536 5533 5528 5524 5520 5517 5514 5508 5502 5497 5491 5487